sat.trackr.live / text

‹ back to catalog

TIANLIAN 2-01

NORAD 44076 · 2019-017A

PAYLOAD ACTIVE UNKNOWN

§ Identity

Operator
Country
PRC
Launch date
2019-03-31
Launch site
XICLF
Launch vehicle
Mass (kg)
RCS (m²)

Purposes: comms

External: N2YO · Heavens-Above · Gunter

§ Orbital elements

Epoch: 2026-05-25T04:06:37.651968Z

Period
1,436.10 min
Inclination
0.4825°
Eccentricity
0.0000894
Mean motion
1.00271449 rev/d
Perigee alt
35,782.9 km
Apogee alt
35,790.5 km
Semi-major
42,164.8 km
B*
0.0000e+0
RAAN
83.0672°
Arg perigee
318.3404°
Mean anomaly
340.0351°
Rev number
2,641

§ Raw data

TIANLIAN 2-011 44076U 19017A   26145.17126912 -.00000109  00000+0  00000+0 0  99952 44076   0.4825  83.0672 0000894 318.3404 340.0351  1.00271449 26419

JSON: /api/v1/satellites/44076 · /tle

For live sub-satellite position, see the globe view (requires WebGL).

§ Visibility from observer

Set your observer location to see the next 7 days of passes ≥ 10°. The values pass through the URL so the page stays shareable.

No JS? Fill the form by hand. The geolocation button needs JavaScript.